User: anonymous   Login
Location: *
(48.8489°N, 2.3218°E)
Time: 21:15:23
(UTC+00:00)
Language:

SJ 16-02 - Orbit

View from above orbital plane
View from above orbital plane
View from above satellite
View from above satellite

Ground track
Ground track

The orbit data is extracted from the following two-line orbital elements,

1 41634U 16043A   19286.46119442  .00000125  00000-0  17583-4 0  9995
2 41634  75.0050 176.3189 0008302 180.0504 180.0687 14.85610358178415
Epoch (UTC): 13 October 2019 11:04:07
Eccentricity: 0.0008302
inclination: 75.0050°
perigee height: 606 km
apogee height: 617 km
right ascension of ascending node: 176.3189°
argument of perigee: 180.0504°
revolutions per day: 14.85610358
mean anomaly at epoch: 180.0687°
orbit number at epoch: 17841

The dashed part of the orbit path shows where the satellite is in the earth's shadow,  

DLR